Regional Weather Roundup
Issued by NWS State College, PA

Home | Current Version | Previous Version | Text Only | Print | Product List | Glossary Off
Versions: 1 2 3 4 5 6 7 8 9 10 11 12 13 14 15 16 17 18 19 20 21 22 23 24 25 26 27 28 29 30 31 32 33 34 35 36 37 38 39 40 41 42 43 44 45 46 47 48 49 50

000
ASUS41 KCTP 220803
RWRCTP

REGIONAL WEATHER ROUNDUP
NATIONAL WEATHER SERVICE STATE COLLEGE PA
400 AM EDT THU JUN 22 2017

Note: "fair" indicates few or no clouds below 12,000 feet with no
significant weather and/or obstructions to visibility.

* = STATION THAT DOES NOT REPORT PRECIPITATION /E.G. RAIN...SNOW...ETC/
    THUNDER OR FOG.

PAZ002>004-007>009-013>016-020>023-029>032-220900-
WESTERN PENNSYLVANIA

CITY           SKY/WX    TMP DP  RH WIND       PRES   REMARKS
ERIE           CLEAR     56  52  86 S3        30.00S
MEADVILLE      CLEAR     53  51  93 CALM      30.02S
FRANKLIN*      CLEAR     52  48  87 CALM      30.03S
NEW CASTLE     PTSUNNY   58  57  97 CALM      30.01F
BEAVER COUNTY  NOT AVBL
BUTLER*        PTCLDY    59  55  88 NE5       30.01S
PITTSBURGH INT MOCLDY    66  60  81 CALM      30.00S
PITTSBURGH     PTCLDY    65  61  87 S5        30.00S
INDIANA*       CLOUDY    61  61 100 CALM      30.05S
LATROBE        PTCLDY    63  63 100 CALM      30.02S
WASHINGTON CO* PTCLDY    61  59  94 CALM      30.03R
$$

PAZ004>006-010>012-017>019-024>028-033>037-041-042-045-046-049>053-220900-
CENTRAL PENNSYLVANIA

CITY           SKY/WX    TMP DP  RH WIND       PRES   REMARKS
BRADFORD       CLEAR     46  46 100 CALM      30.04S
DUBOIS         CLEAR     55  52  89 NE3       30.03S
CLEARFIELD     MOCLDY    54  53  97 N5        30.04S
JOHNSTOWN      MOCLDY    64  62  93 SW3       30.05S
ALTOONA        MOCLDY    62  62 100 CALM      30.03S FOG
STATE COLLEGE  PTCLDY    58  56  94 CALM      30.03S
WILLIAMSPORT   PTCLDY    58  56  93 NW3       30.00S
SELINSGROVE    PTCLDY    58  58 100 CALM      30.01S
FT INDIANTOWN  CLEAR     62  62 100 CALM      29.99S
CAPITAL CITY   CLOUDY    64  61  90 SW5       29.99S
HARRISBURG     CLOUDY    67  65  93 CALM      29.98S
YORK           CLOUDY    64  64 100 CALM      29.99S
$$

PAZ038>040-043-044-047-048-054-055-060>062-067>071-220900-
EASTERN PENNSYLVANIA

CITY           SKY/WX    TMP DP  RH WIND       PRES   REMARKS
SCRANTON       CLEAR     57  54  89 E5        30.02S
MOUNT POCONO   CLEAR     49  49 100 CALM      30.04R
ALLENTOWN      CLEAR     61  58  90 CALM      29.99S
QUAKERTOWN*    SUNNY     57  57 100 CALM      30.00S
READING        PTCLDY    62  62 100 CALM      29.98S
LANCASTER      CLOUDY    64  64 100 CALM      29.99S FOG
COATESVILLE    MOSUNNY   64  63  94 W5        30.01S
POTTSTOWN      CLOUDY    62  62 100 CALM      30.01R FOG
BLUE BELL      PTCLDY    61  61 100 CALM      30.00S
DOYLESTOWN     CLEAR     62  62 100 CALM      29.98S
WILLOW GROVE   NOT AVBL
NORTH PHILA    CLOUDY    66  64  93 CALM      30.00R FOG
PHILADELPHIA   CLOUDY    70  67  90 W6        29.98S
$$




USA.gov is the U.S. government's official web portal to all federal, state and local government web resources and services.